Location: Newark
(39.0622°N, 106.5590°E)
Time: 22:31:37
(UTC+00:00)

Vanguard 2 Rocket - Pass Details

Date: 26 January 2020
Orbit: 554 x 3327 km, 32.9° (Epoch: 19 February)

Event Time Altitude Azimuth Distance (km) Brightness Sun altitude
Rises 21:08:28 0° 231° (SW) 2,710 - -34.3°
Reaches altitude 10° 21:10:49 10° 217° (SW) 1,843 - -33.8°
Maximum altitude 21:14:11 26° 159° (SSE) 1,231 - -33.2°
Exits shadow 21:15:29 23° 132° (SE) 1,411 8.2 -32.9°
Drops below altitude 10° 21:18:21 10° 103° (ESE) 2,309 9.8 -32.4°
Sets 21:21:41 0° 91° (E) 3,584 11.1 -31.7°
